Find Starlink 3737

NORAD ID: 52114 Int'l Des: 2022-029 Owner: SPXS Country: US Constellation: starlink operational
LEOCIRCULAR

Live Position

Loading 3D Globe...

About Starlink 3737

Description loading...

Upcoming Passes

Passes for default location (London). Set your location on the main map for personalized predictions.

Altitude History

Loading altitude history...

Two-Line Element Set

1 52114U 22029AC 26104.18992575 .00000589 00000-0 55093-4 0 9995
2 52114 53.2148 279.7506 0001074 82.4465 277.6649 15.08837428226147
Epoch: Apr 14, 2026 • Age: 12 hours

Current Status

Altitude 543.6 km
Velocity 7.60 km/s
Sub-Earth Point 43.77°N, 33.97°W
Launch Date Mar 19, 2022
Age 4 years
Type internet

Technical Details

Classification Payload
Mass 297.00 kg
Dry Mass 275.00 kg
Total Mass 297.00 kg
Length 0.20 m
Diameter 2.80 m
Span 9.00 m
Shape Box + pan
Manufacturer SPXS
Bus Type Starlink
Phase Status In Orbit
Owner/State SPXS/US

Most Searched